[[{"header":{"parameterUnit":"m.s-1","parameterCategory":1,"la1":30.2991,"la2":30.254,"lo1":-89.0895,"lo2":-89.0444,"dy":0.0017,"dx":0.0017,"nx":28,"ny":28,"refTime":"2024-03-08T03:00:00:Z","depth":0,"parameterNumber":2,"parameterNumberName":"U-component_of_WINDS"},"data":[0,0,0,0,0,0,0,0,0,0,0,0,0,0,0,0,0,0,0,0,0,0,0,0,0,0,0,0,0,0,0,0,0,0,0,0,0,0,0,0,0,0,0,0,0,0,0,0,0,0,0,0,0,0,0,0,0,0,-3.1359,-3.1358,0,-3.1343,-3.1343,-3.1343,-3.1267,-3.1266,-3.1264,-3.1262,-3.1248,-3.1249,-3.125,0,0,0,0,0,0,0,0,0,0,0,0,0,-3.1325,-3.1326,-3.1359,-3.1358,-3.1358,-3.1343,-3.1343,-3.1343,-3.1268,-3.1266,-3.1263,-3.1261,-3.1247,-3.1249,-3.125,0,0,0,0,0,0,0,0,0,0,0,0,0,-3.1328,-3.1326,-3.1359,-3.1319,-3.1315,-3.1343,-3.1343,-3.1343,-3.1268,-3.1266,-3.1263,-3.126,-3.1247,-3.1249,-3.1251,-3.1316,0,0,-3.1257,-3.1257,0,0,0,0,0,0,0,0,-3.1328,-3.1329,-3.1325,-3.1322,-3.1318,-3.1304,-3.1326,-3.1334,-3.1269,-3.1286,-3.1262,-3.1259,-3.1269,-3.1269,-3.1272,-3.1316,-3.1315,-3.1257,-3.1258,-3.1259,-3.1259,0,0,0,0,0,0,0,-3.1327,-3.1329,-3.1352,-3.1325,-3.132,-3.1303,-3.13,-3.1327,-3.1293,-3.1284,-3.1279,-3.1278,-3.1266,-3.127,-3.1271,-3.1315,-3.1257,-3.1258,-3.126,-3.126,-3.1412,-3.1415,0,0,0,0,0,0,-3.1333,-3.133,-3.1353,-3.1352,-3.1316,-3.1305,-3.1302,-3.1311,-3.1292,-3.1287,-3.128,-3.1275,-3.1268,-3.1269,-3.127,-3.1346,-3.1259,-3.1261,-3.1262,-3.141,-3.1413,-3.1416,0,0,0,0,0,0,-3.1332,-3.1335,-3.1354,-3.1339,-3.134,-3.1309,-3.1319,-3.1313,-3.1316,-3.1289,-3.1283,-3.129,-3.1266,-3.1268,-3.1305,-3.1344,-3.1261,-3.1263,-3.1406,-3.1411,-3.1415,-3.1497,0,0,0,0,0,0,-3.1332,-3.1336,-3.136,-3.134,-3.1341,-3.1389,-3.1322,-3.1314,-3.132,-3.1312,-3.1297,-3.1292,-3.1264,-3.1303,-3.1307,-3.1345,-3.1265,-3.1402,-3.1408,-3.1413,-3.1491,-3.1504,-3.1515,0,0,0,0,0,-3.1331,-3.1384,-3.1361,-3.1364,-3.137,-3.1391,-3.1391,-3.1358,-3.1323,-3.1347,-3.133,-3.1292,-3.134,-3.1308,-3.1312,-3.1351,-3.14,-3.1407,-3.1413,-3.1485,-3.1501,-3.1515,0,0,0,0,0,0,-3.1408,-3.138,-3.1355,-3.1403,-3.14,-3.1378,-3.1407,-3.1376,-3.1383,-3.1375,-3.1334,-3.1331,-3.1376,-3.1367,-3.1332,-3.1414,-3.1363,-3.1371,-3.1417,-3.1432,-3.1444,-3.1444,-3.1266,0,0,0,0,0,-3.1431,-3.1449,-3.1424,-3.1469,-3.1469,-3.1439,-3.1446,-3.1421,-3.1416,-3.1415,-3.14,-3.1397,-3.1411,-3.1422,-3.1433,-3.149,-3.1486,-3.1519,-3.1531,-3.1541,-3.1548,-3.1578,-3.1592,-3.1437,-3.1437,-3.1437,0,0,-3.1478,-3.1465,-3.1479,-3.1485,-3.1479,-3.1499,-3.1438,-3.1462,-3.1477,-3.1418,-3.1453,-3.1443,-3.1437,-3.1485,-3.1505,-3.1479,-3.159,-3.155,-3.1558,-3.1559,-3.1586,-3.1601,-3.1614,-3.1442,-3.1441,-3.144,0,0,-3.1573,-3.1566,-3.1602,-3.1599,-3.1591,-3.1571,-3.158,-3.1563,-3.1554,-3.1588,-3.1545,-3.1563,-3.1588,-3.1586,-3.1588,-3.1686,-3.1651,-3.1691,-3.1753,-3.1783,-3.1795,-3.1805,-3.184,-3.1853,-3.1698,-3.1698,-3.1698,0,-3.1633,-3.1661,-3.1625,-3.1653,-3.1657,-3.1605,-3.1642,-3.164,-3.1638,-3.1642,-3.1613,-3.1644,-3.1637,-3.1683,-3.1707,-3.1711,-3.172,-3.1691,-3.1796,-3.1806,-3.1815,-3.1848,-3.1861,-3.1703,-3.1702,-3.1702,-3.1701,0,-3.1734,-3.1755,-3.1786,-3.1784,-3.1792,-3.1824,-3.1794,-3.1806,-3.1782,-3.1765,-3.1801,-3.1791,-3.1799,-3.1809,-3.1785,-3.1853,-3.1837,-3.1803,-3.1751,-3.1836,-3.1865,-3.1877,-3.171,-3.1708,-3.1707,-3.1705,0,0,-3.1876,-3.1855,-3.1867,-3.1866,-3.1855,-3.1871,-3.1902,-3.191,-3.1921,-3.1922,-3.1947,-3.197,-3.1939,-3.1942,-3.1917,-3.1944,-3.2021,-3.1906,-3.1905,-3.1927,-3.2096,-3.212,-3.2135,-3.1999,-3.2002,-3.2003,-3.2096,0,-3.1967,-3.2017,-3.1986,-3.2041,-3.206,-3.2013,-3.204,-3.2037,-3.2023,-3.2037,-3.2022,-3.2039,-3.1997,-3.1998,-3.2022,-3.2007,-3.2054,-3.2,-3.2022,-3.2023,-3.2023,-3.2151,-3.2176,-3.2264,-3.2107,-3.2109,-3.211,0,-3.2078,-3.2084,-3.2141,-3.2127,-3.2134,-3.2158,-3.2164,-3.2179,-3.2175,-3.2163,-3.2167,-3.2137,-3.2167,-3.2117,-3.2158,-3.2122,-3.213,-3.2124,-3.2126,-3.2126,-3.2071,-3.2152,-3.2291,-3.2304,-3.2128,-3.2127,-3.2126,0,-3.2175,-3.2197,-3.2234,-3.2234,-3.222,-3.2238,-3.2233,-3.2226,-3.2234,-3.224,-3.2244,-3.2254,-3.2259,-3.2267,-3.224,-3.2207,-3.2285,-3.2233,-3.2276,-3.2277,-3.2293,-3.2292,-3.2433,-3.2301,-3.23,-3.23,-3.23,0,-3.2279,-3.2315,-3.2277,-3.2299,-3.2339,-3.2305,-3.2346,-3.2336,-3.2331,-3.2351,-3.2312,-3.2332,-3.2296,-3.2313,-3.2293,-3.2329,-3.2332,-3.2324,-3.2317,-3.2326,-3.2327,-3.2329,-3.2322,-3.2304,-3.2303,-3.2302,-3.2302,0,-3.2392,-3.2368,-3.2405,-3.2389,-3.2386,-3.2416,-3.2402,-3.2422,-3.2407,-3.2433,-3.2437,-3.2413,-3.2431,-3.2405,-3.2421,-3.2407,-3.2458,-3.2443,-3.2459,-3.2454,-3.2498,-3.2494,-3.2644,-3.2662,-3.2519,-3.2521,-3.2522,0,-3.2459,-3.2486,-3.2473,-3.2484,-3.2481,-3.2498,-3.2506,-3.2475,-3.2484,-3.2483,-3.2504,-3.2518,-3.2528,-3.2559,-3.2543,-3.2555,-3.2539,-3.2592,-3.2541,-3.2549,-3.2539,-3.2537,-3.254,-3.2601,-3.2603,-3.2605,-3.2606,0,-3.258,-3.2567,-3.2579,-3.2588,-3.2598,-3.2604,-3.2606,-3.2617,-3.2584,-3.2598,-3.2615,-3.2623,-3.2639,-3.2654,-3.2662,-3.2657,-3.2627,-3.2622,-3.2632,-3.2641,-3.2648,-3.2644,-3.2486,-3.2618,-3.2617,-3.2616,-3.2615,-3.2615,-3.2672,-3.2693,-3.2688,-3.2703,-3.2702,-3.2706,-3.2724,-3.2711,-3.2725,-3.2735,-3.2717,-3.2739,-3.2736,-3.2744,-3.2743,-3.2761,-3.2738,-3.2753,-3.2757,-3.2761,-3.2767,-3.2647,-3.2762,-3.2762,-3.2761,-3.2761,-3.2761,0,-3.279,-3.2784,-3.2799,-3.2803,-3.2816,-3.2786,-3.2788,-3.28,-3.2821,-3.282,-3.2831,-3.2852,-3.2867,-3.2853,-3.2865,-3.2883,-3.2869,-3.2887,-3.2884,-3.2884,-3.2787,-3.2776,-3.2898,-3.2898,-3.2898,-3.2898,-3.2898,-3.2898,-3.2852,-3.2888,-3.2875,-3.291,-3.2904,-3.2926,-3.293,-3.2933,-3.2933,-3.2958,-3.297,-3.2961,-3.2955,-3.2967,-3.298,-3.2975,-3.2981,-3.3004,-3.2995,-3.2904,-3.2891,-3.2878,-3.2867,-3.3006,-3.3006,-3.309,-3.3091,-3.3092]},{"header":{"parameterUnit":"m.s-1","parameterCategory":1,"la1":30.2991,"la2":30.254,"lo1":-89.0895,"lo2":-89.0444,"dy":0.0017,"dx":0.0017,"nx":28,"ny":28,"refTime":"2024-03-08T03:00:00:Z","depth":0,"parameterNumber":3,"parameterNumberName":"V-component_of_WINDS"},"data":[0,0,0,0,0,0,0,0,0,0,0,0,0,0,0,0,0,0,0,0,0,0,0,0,0,0,0,0,0,0,0,0,0,0,0,0,0,0,0,0,0,0,0,0,0,0,0,0,0,0,0,0,0,0,0,0,0,0,2.0278,2.0279,0,2.0387,2.0388,2.0389,2.0449,2.0449,2.0449,2.0449,2.056,2.0563,2.0565,0,0,0,0,0,0,0,0,0,0,0,0,0,2.0122,2.0124,2.0278,2.0279,2.028,2.0387,2.0388,2.039,2.0449,2.0449,2.0449,2.0449,2.0559,2.0562,2.0566,0,0,0,0,0,0,0,0,0,0,0,0,0,2.0206,2.0125,2.0277,2.0323,2.0328,2.0386,2.0388,2.039,2.0449,2.0449,2.0449,2.0449,2.0558,2.0562,2.0566,2.0587,0,0,2.0579,2.0581,0,0,0,0,0,0,0,0,2.0201,2.0211,2.0315,2.032,2.0326,2.0404,2.0374,2.0456,2.0449,2.0403,2.0449,2.045,2.0508,2.0516,2.0536,2.0593,2.0597,2.0579,2.0582,2.0584,2.0585,0,0,0,0,0,0,0,2.0195,2.0207,2.0321,2.0316,2.0323,2.0338,2.035,2.039,2.0453,2.0407,2.0411,2.0424,2.0511,2.0532,2.0539,2.0599,2.0579,2.0583,2.0586,2.0587,2.068,2.068,0,0,0,0,0,0,2.0182,2.0202,2.0317,2.0324,2.0263,2.0341,2.0354,2.0379,2.0452,2.0464,2.0423,2.0426,2.0525,2.0534,2.0543,2.0574,2.0584,2.0588,2.059,2.068,2.068,2.068,0,0,0,0,0,0,2.0178,2.0192,2.0313,2.0264,2.0281,2.0343,2.037,2.0381,2.0402,2.0465,2.0476,2.0433,2.0525,2.0537,2.0577,2.0579,2.059,2.0593,2.068,2.068,2.068,2.0635,0,0,0,0,0,0,2.0174,2.019,2.0198,2.0264,2.0283,2.0344,2.037,2.0383,2.0409,2.0414,2.0477,2.0488,2.0526,2.057,2.0581,2.0585,2.0597,2.068,2.068,2.068,2.0637,2.0634,2.0631,0,0,0,0,0,2.0168,2.0181,2.0199,2.0212,2.0295,2.0344,2.0355,2.0399,2.0409,2.0419,2.0459,2.0486,2.0577,2.0573,2.0586,2.0591,2.068,2.068,2.068,2.0638,2.0634,2.0631,0,0,0,0,0,0,2.0114,2.019,2.0211,2.0246,2.0288,2.0354,2.0367,2.0394,2.0434,2.0436,2.0489,2.0503,2.0537,2.0568,2.0563,2.0617,2.0631,2.0634,2.0595,2.0592,2.0589,2.0581,2.06,0,0,0,0,0,2.0106,2.0139,2.0204,2.0229,2.0249,2.0304,2.0327,2.0358,2.0404,2.0422,2.0465,2.0508,2.0547,2.0571,2.061,2.0642,2.0657,2.0652,2.0649,2.0646,2.0647,2.0668,2.0666,2.0679,2.0679,2.0679,0,0,2.009,2.0136,2.0154,2.0219,2.0256,2.0289,2.0319,2.0353,2.0379,2.0427,2.0467,2.05,2.0552,2.0588,2.0606,2.0615,2.0647,2.0646,2.0643,2.0646,2.0667,2.0666,2.0665,2.0679,2.0679,2.0679,0,0,2.0079,2.0116,2.0142,2.0178,2.0233,2.0269,2.0275,2.0338,2.0362,2.0403,2.044,2.0472,2.0536,2.0572,2.0599,2.0602,2.0629,2.0613,2.0598,2.0617,2.0616,2.0616,2.0618,2.0617,2.0615,2.0614,2.0614,0,2.0052,2.0104,2.0151,2.0183,2.0212,2.0257,2.0284,2.0316,2.0381,2.0399,2.0409,2.0492,2.053,2.0575,2.0576,2.0596,2.0605,2.0606,2.0612,2.0612,2.0612,2.0615,2.0615,2.0612,2.0613,2.0613,2.0613,0,2.0069,2.0105,2.0118,2.018,2.021,2.0239,2.0291,2.0315,2.0343,2.0379,2.0421,2.0468,2.0518,2.0531,2.0558,2.0581,2.0585,2.0602,2.0618,2.0608,2.0612,2.0613,2.0609,2.061,2.0611,2.0611,0,0,2.0026,2.0115,2.0119,2.0148,2.0212,2.0241,2.0272,2.0322,2.0342,2.0385,2.0413,2.0468,2.0485,2.0515,2.0547,2.0564,2.0565,2.058,2.0582,2.0576,2.0593,2.058,2.058,2.0582,2.0583,2.0583,2.0589,0,2.0025,2.0083,2.0127,2.0169,2.0203,2.0248,2.0275,2.0318,2.0352,2.0387,2.0425,2.0463,2.0482,2.0501,2.052,2.056,2.0569,2.0561,2.0609,2.0611,2.0596,2.0582,2.0567,2.057,2.059,2.0591,2.0591,0,2.0031,2.0073,2.0118,2.018,2.0196,2.022,2.0269,2.0301,2.0351,2.0375,2.0409,2.0442,2.0478,2.049,2.0541,2.0534,2.0557,2.058,2.0581,2.0588,2.06,2.0588,2.0572,2.0573,2.0593,2.0593,2.0593,0,1.9996,2.0064,2.0101,2.0124,2.0197,2.0213,2.0244,2.0294,2.0321,2.0364,2.0382,2.0428,2.0454,2.0489,2.0534,2.0539,2.058,2.0596,2.0601,2.06,2.0608,2.0607,2.0596,2.0621,2.0621,2.0621,2.0621,0,1.999,2.0016,2.0086,2.0108,2.014,2.019,2.0219,2.0254,2.0298,2.0329,2.037,2.0397,2.0455,2.049,2.0525,2.0562,2.0573,2.0593,2.0603,2.059,2.0588,2.0606,2.0607,2.0622,2.0622,2.0622,2.0622,0,1.9956,2.0004,2.0047,2.0113,2.013,2.015,2.0207,2.023,2.0267,2.0305,2.0317,2.0375,2.0418,2.0467,2.0525,2.0549,2.0584,2.0597,2.0567,2.0573,2.0576,2.0575,2.0577,2.058,2.0602,2.0602,2.0601,0,1.995,1.9971,2.0039,2.0063,2.0093,2.013,2.0158,2.0208,2.0236,2.0295,2.0312,2.0358,2.0398,2.0464,2.0512,2.0557,2.0572,2.057,2.0579,2.0566,2.0573,2.0572,2.0574,2.0567,2.0566,2.0566,2.0566,0,1.9933,1.9956,1.9995,2.0042,2.0075,2.0115,2.0156,2.0173,2.0232,2.0261,2.0306,2.0337,2.0398,2.0443,2.0495,2.0527,2.0556,2.0562,2.0566,2.0554,2.0536,2.0547,2.056,2.0562,2.0562,2.0563,2.0563,2.0563,1.9914,1.9935,1.9987,2.0029,2.0066,2.0104,2.013,2.017,2.0208,2.0262,2.029,2.0334,2.0384,2.0457,2.0488,2.0524,2.0534,2.0539,2.054,2.0541,2.0538,2.053,2.0533,2.0534,2.0534,2.0534,2.0534,0,1.99,1.9935,1.9974,2.0031,2.0064,2.0089,2.0137,2.0163,2.0202,2.0246,2.0285,2.0337,2.0382,2.0433,2.0481,2.05,2.0514,2.0511,2.051,2.0517,2.0526,2.0518,2.0498,2.0498,2.0498,2.0498,2.0498,2.0498,1.9897,1.9935,1.9964,2.0021,2.0056,2.01,2.0126,2.0161,2.0197,2.0253,2.0291,2.0324,2.0371,2.0423,2.0466,2.048,2.0496,2.0488,2.0506,2.0513,2.0516,2.0519,2.0512,2.0491,2.0491,2.0494,2.0494,2.0494]}]]